Regional Weather Roundup
Issued by NWS

Home | Current Version | Previous Version | Graphics & Text | Print | Product List | Glossary On
Versions: 1 2 3 4 5 6 7 8 9 10 11 12 13 14 15 16 17 18 19 20 21 22 23 24 25 26 27 28 29 30 31 32 33 34 35 36 37 38 39 40 41 42 43 44 45 46 47 48 49 50
880
ASUS43 KLOT 130808
RWRIL

ILLINOIS REGIONAL WEATHER ROUNDUP
NATIONAL WEATHER SERVICE CHICAGO/ROMEOVILLE IL
200 AM CST WED DEC 13 2017

NOTE: "FAIR" INDICATES FEW OR NO CLOUDS BELOW 12,000 FEET WITH NO
SIGNIFICANT WEATHER AND/OR OBSTRUCTIONS TO VISIBILITY.

* THESE STATIONS ARE NOT UNDER NWS QUALITY CONTROL. THEY ALSO MAY NOT
  REPORT WEATHER SUCH AS PRECIPITATION OR FOG.

ILZ001-002-007-009-015-016-024-130900-
NORTHWEST ILLINOIS

CITY           SKY/WX    TMP DP  RH WIND       PRES   REMARKS
MOLINE         MOCLDY    29  13  51 SW9       29.78F WCI  20
STERLING*      CLOUDY    25  13  60 VRB3      29.79F
SAVANNA*       CLOUDY    24  14  66 S12       29.78F WCI  13
$$

ILZ003-004-008-010-011-017-018-130900-
NORTH CENTRAL ILLINOIS

CITY           SKY/WX    TMP DP  RH WIND       PRES   REMARKS
ROCKFORD       CLOUDY    23  14  68 S8        29.81F WCI  14
FREEPORT*      CLOUDY    24  11  59 S14       29.79F WCI  11
ROCHELLE*      CLOUDY    23  15  70 S9        29.81F WCI  13
DE KALB*       CLOUDY    22  16  79 S10       29.82F WCI  11
PERU*          CLOUDY    24  11  58 S9        29.83F WCI  14
$$

ILZ005-006-012>014-019>023-130900-
NORTHEAST ILLINOIS

CITY           SKY/WX    TMP DP  RH WIND       PRES   REMARKS
CHICAGO-OHARE  CLOUDY    22  11  62 S8        29.84F WCI  12
CHICAGO-MIDWAY CLOUDY    23  10  57 S8        29.86F WCI  14
AURORA         CLOUDY    22  14  71 SE8       29.84F WCI  12
LANSING*       CLOUDY    21  12  67 S7        29.88F WCI  13
JOLIET*        CLOUDY    25  14  64 SE3       29.86F
WAUKEGAN       CLOUDY    21  11  65 S5        29.82F WCI  15
DUPAGE AIRPORT CLOUDY    21  13  71 S10       29.83F WCI  10
KANKAKEE*      CLOUDY    23  10  58 S7        29.89F WCI  15
WHEELING       CLOUDY    22  11  62 S9        29.85F WCI  12
MORRIS*        CLOUDY    24  13  62 S7        29.84F WCI  16
ROMEOVILLE*    CLOUDY    22  13  69 S7        29.85F WCI  13
NORTHERLY ISL    N/A     22   8  55 S7          N/A  WCI  14
$$

LMZ740>746-130900-
SOUTHERN LAKE MICHIGAN

STATION/POSITION SKY/WX   TEMP    WIND        PRES    VSBY  WAVE
                          AIR SEA DIR/SP/G                  HT/PER
                          (F)     (DEG/KT/KT) (MB)    (MI)  (FT/S)
BURNHAM HARBOR             22     200/  8/  9   N/A
CALUMET HARBOR             22     160/  5/  8 1010.9F
BURNS HARBOR               21     190/  6/ 10 1012.2F
$$

ILZ025>027-034>036-040-047-049-050-058-095>099-130900-
WEST-CENTRAL ILLINOIS

CITY           SKY/WX    TMP DP  RH WIND       PRES   REMARKS
QUINCY         PTCLDY    28  15  58 SW12      29.86F WCI  18
GALESBURG*     CLOUDY    27  15  61 S10       29.82F WCI  17
MACOMB*        CLOUDY    27  13  56 SW8       29.86F WCI  19
JACKSONVILLE*  CLOUDY    25   8  46 SW7       29.90F WCI  18
PITTSFIELD*    CLOUDY    28  11  50 S9        29.90F WCI  19
$$

ILZ028>032-037-038-041>044-048-051>054-059>061-130900-
CENTRAL ILLINOIS

CITY           SKY/WX    TMP DP  RH WIND       PRES   REMARKS
PONTIAC        CLOUDY    26   8  45 S9        29.87F WCI  17
BLOOMINGTON    CLOUDY    23   9  55 S10       29.87F WCI  12
DECATUR        CLOUDY    20   9  62 SW7       29.92F WCI  11
PEORIA         CLOUDY    24  10  55 S7        29.86F WCI  16
LACON*         CLOUDY    26   9  48 S6        29.83F WCI  20
LINCOLN*       CLOUDY    21  10  60 S5        29.90F WCI  15
SPRINGFIELD    CLOUDY    25   8  48 SW8       29.91F WCI  16
TAYLORVILLE    CLOUDY    22   8  54 S8        29.93F WCI  13
$$

ILZ033-039-045-046-055>057-062-063-130900-
EAST-CENTRAL ILLINOIS

CITY           SKY/WX    TMP DP  RH WIND       PRES   REMARKS
CHAMPAIGN      CLOUDY    23  10  57 S12       29.91F WCI  12
DANVILLE*      CLOUDY    21  10  63 S5        29.90F WCI  15
RANTOUL*       CLOUDY    25  11  54 S6        29.90F WCI  18
MATTOON        CLOUDY    22  11  62 S8        29.94F WCI  12
PARIS*         CLOUDY    24  11  56 S7        29.95F WCI  16
$$

ILZ079-100>102-130900-
SOUTHWEST ILLINOIS

CITY           SKY/WX    TMP DP  RH WIND       PRES   REMARKS
ALTON          CLOUDY    22  13  66 S5        29.96F WCI  16
BELLEVILLE     CLOUDY    21   9  59 S5        29.97F WCI  15
CAHOKIA*       CLOUDY    23   9  55 S3        29.98F
SPARTA*        CLOUDY    27  11  50 S7        30.01F WCI  20
$$

ILZ064>066-069>071-074>076-080>082-084>086-088>090-092>094-130900-
SOUTH-CENTRAL ILLINOIS

CITY           SKY/WX    TMP DP  RH WIND       PRES   REMARKS
CARBONDALE     CLEAR     22  14  71 S5        30.03F WCI  16
CAIRO*         CLOUDY    20  14  77 CALM      30.07F
EFFINGHAM*     CLOUDY    22  11  63 S5        29.99F WCI  16
MARION         CLOUDY    24  13  62 S5        30.03F WCI  18
MT. VERNON     CLOUDY    20  14  77 CALM      30.01F
CENTRALIA*     CLOUDY    24  14  63 CALM      29.99F
SALEM*         CLOUDY    25  10  53 S6        29.99F WCI  18
METROPOLIS*    CLOUDY    20  15  81 CALM      30.07F
$$

ILZ067-068-072-073-078-083-087-091-130900-
SOUTHEAST ILLINOIS

CITY           SKY/WX    TMP DP  RH WIND       PRES   REMARKS
LAWRENCEVILLE  CLOUDY    20  12  71 S7        30.01F WCI  11
FLORA*         CLOUDY    23  14  69 S7        30.00F WCI  14
FAIRFIELD*     CLOUDY    20  14  75 CALM      30.01F
HARRISBURG*    CLOUDY    19  14  80 CALM      30.04F
ROBINSON*      CLOUDY    19  10  70 S7        29.99F WCI   9
CARMI*         CLOUDY    21  14  75 CALM      30.02F
$$

ABBREVIATIONS USED IN REMARKS
   TC - TEMPERATURE IN CELSIUS
  WCI - WIND CHILL INDEX
   HX - HEAT INDEX
  VSB - VISIBILITY
$$





USA.gov is the U.S. government's official web portal to all federal, state and local government web resources and services.